Hourly Weather Roundup
Issued by NWS Central Illinois

Home | Current Version | Previous Version | Text Only | Print | Product List | Glossary On
Versions: 1 2 3 4 5 6 7 8 9 10 11 12 13 14 15 16 17 18 19 20 21 22 23 24 25 26 27 28 29 30 31 32 33 34 35 36 37 38 39 40 41 42 43 44 45 46 47 48 49 50
000
NZUS43 KILX 170910
HWRILX

Area Weather Roundup
National Weather Service Lincoln IL
400 AM CDT THU AUG 17 2017

NOTE:  "FAIR" indicates few or no clouds below 12,000 feet, with
       no sigificant weather and/or obstructions to visibility.


CITY           SKY/WX    TMP DP  RH WIND       PRES   REMARKS
Bloomington    NOT AVBL
Champaign      NOT AVBL
Danville       CLEAR     70  69  98 S8        29.83F
Decatur        CLOUDY    71  68  90 S9        29.82F
Effingham      CLOUDY    71  71 100 S6        29.88S
Flora          PTCLDY    72  71  96 S5        29.85F
Galesburg      CLOUDY    70  67  92 SW9       29.78F
Jacksonville   LGT RAIN  69  68  96 CALM      29.81F
Lacon          CLOUDY    72  69  91 SW6       29.78F
Lawrenceville  PTCLDY    73  72  96 S3        29.89S
Litchfield     LGT RAIN  70  69  98 SW6       29.82F
$$


CITY           SKY/WX    TMP DP  RH WIND       PRES   REMARKS
Lincoln        LGT RAIN  72  71  97 W3        29.83R
Macomb         CLOUDY    70  69  95 SW8       29.80F
Mattoon        CLOUDY    71  71 100 S7        29.84F
Mt Carmel AP   PTCLDY    73  72  95 S5        29.88F
Olney-Noble AP CLOUDY    71  68  93 SE5       29.87F
Paris AP       CLOUDY    70  70  99 S7        29.86F
Peoria         NOT AVBL
Pontiac        CLOUDY    72  72  99 CALM      29.82F
Rantoul        CLOUDY    71  70  97 S7        29.85R
Robinson       CLOUDY    70  70  99 S5        29.89F
Springfield    CLOUDY    72  70  93 W8        29.83R
Taylorville    DRIZZLE   71  71  98 S10G23    29.80F
$$

...REGIONAL REPORTS...


CITY           SKY/WX    TMP DP  RH WIND       PRES   REMARKS
Chicago O`Hare NOT AVBL
Kankakee       PTCLDY    72  70  94 S6        29.83S
Moline         NOT AVBL
Mount Sterling CLOUDY    70  68  94 SW8       29.81S
Mount Vernon   NOT AVBL
Pittsfield     CLOUDY    70  69  94 SW7       29.84S
Quincy         CLOUDY    70  68  93 SW12      29.81S
Rockford       CLOUDY    73  69  87 S12       29.76S
$$


CITY           SKY/WX    TMP DP  RH WIND       PRES   REMARKS
Burlington     PTCLDY    71  70  96 SW8       29.77F
Cedar Rapids   NOT AVBL
Des Moines     CLOUDY    68  64  87 W14       29.76S
Kirksville     CLOUDY    69  67  93 SW8       29.82S
Ottumwa        CLOUDY    70  68  93 SW6       29.76S
St Louis       LGT RAIN  70  69  97 S7        29.80F
$$


CITY           SKY/WX    TMP DP  RH WIND       PRES   REMARKS
Terre Haute    CLOUDY    71  69  93 S5        29.88F
Evansville     PTCLDY    77  74  90 S7        29.91S
Indianapolis   CLOUDY    75  72  90 S8        29.90S
Lafayette      NOT AVBL
Madison        NOT AVBL
Milwaukee      NOT AVBL
$$






USA.gov is the U.S. government's official web portal to all federal, state and local government web resources and services.